Moose Lake, MN

2:18 PM CST on November 22, 2019 (GMT -0600)
Moose Lake-Carlton County

Weather History for KMZH - October, 2019

Change the Weather History Date:

Saturday, October 12, 2019

  Actual Average Record
Temperature  
Mean Temperature 34 °F -  
Max Temperature 35 °F 58 °F 80 °F (1956)
Min Temperature 32 °F 34 °F 19 °F (1988)
Degree Days  
Heating Degree Days 32    
Moisture  
Dew Point 30 °F    
Average Humidity 90    
Maximum Humidity 93    
Minimum Humidity 81    
Precipitation  
Precipitation 0.03 in - - ()
Sea Level Pressure  
Sea Level Pressure 29.46 in    
Wind  
Wind Speed 11 mph (SW)    
Max Wind Speed 15 mph    
Max Gust Speed 26 mph    
Visibility 6 miles    
Events Rain , Snow    
Averages and records for this station are not official NWS values.
T = Trace of Precipitation, MM = Missing Value Source: NWS Daily Summary

Daily Weather History Graph

Daily Weather History Graph

Search for Another Location

Airport or City:

Astronomy

Oct. 12, 2019 Rise Set
Actual Time 7:24 AM CDT 6:30 PM CDT
Civil Twilight 6:53 AM CDT 7:00 PM CDT
Nautical Twilight 6:19 AM CDT 7:35 PM CDT
Astronomical Twilight 5:44 AM CDT 8:10 PM CDT
Moon 6:33 PM CDT (10/12) 5:53 AM CDT (10/12)
Length of Visible Light 12h 06m
Length of Day
11h 06m
Waxing Gibbous, 99% of the Moon is Illuminated
Oct 12
Waxing Gibbous
Oct 13
Full
Oct 21
Last Quarter
Oct 27
New
Nov 4
First Quarter

Hourly Weather History & Observations

Time (CDT) Temp. Windchill Dew Point Humidity Pressure Visibility Wind Dir Wind Speed Gust Speed Precip Events Conditions
12:22 AM 32.0 °F 21.6 °F 28.4 °F 87% 29.50 in 2.0 mi SSW 15.0 mph 20.7 mph N/A Snow Light Snow
1:02 AM 32.0 °F 22.5 °F 28.4 °F 87% 29.49 in 10.0 mi SSW 12.7 mph 24.2 mph N/A   Overcast
1:43 AM 33.8 °F 24.3 °F 28.4 °F 81% 29.48 in 10.0 mi SSW 13.8 mph 26.5 mph N/A   Overcast
2:22 AM 33.8 °F 23.9 °F 28.4 °F 81% 29.48 in 10.0 mi SSW 15.0 mph 25.3 mph N/A   Overcast
3:02 AM 32.0 °F 23.0 °F 30.2 °F 93% 29.47 in 3.0 mi SSW 11.5 mph 23.0 mph N/A Snow Light Snow
3:42 AM 33.8 °F 24.3 °F 28.4 °F 81% 29.46 in 10.0 mi SSW 13.8 mph 21.9 mph N/A Snow Light Snow
4:22 AM 33.8 °F 23.9 °F 28.4 °F 81% 29.46 in 7.0 mi SSW 15.0 mph 23.0 mph N/A Snow Light Snow
5:02 AM 32.0 °F 23.0 °F 30.2 °F 93% 29.45 in 2.5 mi SSW 11.5 mph 21.9 mph N/A Snow Light Snow
5:41 AM 32.0 °F 22.1 °F 30.2 °F 93% 29.45 in 4.0 mi SSW 13.8 mph 20.7 mph N/A Snow Light Snow
6:22 AM 32.0 °F 22.1 °F 30.2 °F 93% 29.44 in 4.0 mi SSW 13.8 mph 19.6 mph N/A Snow Light Snow
7:02 AM 32.0 °F 22.5 °F 28.4 °F 87% 29.44 in 5.0 mi SW 12.7 mph 23.0 mph N/A Snow Light Snow
7:42 AM 32.0 °F 23.0 °F 30.2 °F 93% 29.44 in 1.8 mi SSW 11.5 mph 20.7 mph N/A Snow Light Snow
8:22 AM 32.0 °F 23.0 °F 30.2 °F 93% 29.44 in 0.8 mi SSW 11.5 mph 18.4 mph N/A Snow Light Snow
9:03 AM 32.0 °F 23.6 °F 30.2 °F 93% 29.42 in 0.8 mi SSW 10.4 mph 17.3 mph N/A Snow Light Snow
9:42 AM 32.0 °F 23.0 °F 30.2 °F 93% 29.42 in 1.8 mi SSW 11.5 mph 18.4 mph N/A Snow Light Snow
10:24 AM 32.0 °F 24.2 °F 30.2 °F 93% 29.42 in 4.0 mi SSW 9.2 mph 17.3 mph 0.01 in Snow Light Snow
11:03 AM 33.8 °F 25.3 °F 30.2 °F 87% 29.42 in 3.0 mi SSW 11.5 mph 16.1 mph N/A Snow Light Snow
11:42 AM 33.8 °F 26.4 °F 32.0 °F 93% 29.42 in 3.0 mi SSW 9.2 mph 18.4 mph N/A Snow Light Snow
12:22 PM 33.8 °F 27.0 °F 32.0 °F 93% 29.43 in 2.0 mi SSW 8.1 mph - N/A Snow Light Snow
1:02 PM 35.6 °F 28.6 °F 32.0 °F 87% 29.42 in 10.0 mi SSW 9.2 mph 17.3 mph N/A Rain Light Rain
1:42 PM 35.6 °F 27.5 °F 32.0 °F 87% 29.42 in 7.0 mi SSW 11.5 mph 17.3 mph N/A Rain Light Rain
2:22 PM 35.6 °F 28.0 °F 32.0 °F 87% 29.41 in 7.0 mi SSW 10.4 mph 16.1 mph N/A Rain Light Rain
3:02 PM 35.6 °F 29.2 °F 32.0 °F 87% 29.42 in 3.0 mi SSW 8.1 mph - N/A Rain Light Rain
3:42 PM 35.6 °F 28.6 °F 32.0 °F 87% 29.43 in 3.0 mi SW 9.2 mph - 0.01 in Rain Light Rain
4:22 PM 33.8 °F 26.4 °F 32.0 °F 93% 29.43 in 3.0 mi SSW 9.2 mph - N/A Rain Light Rain
5:02 PM 33.8 °F 29.6 °F 32.0 °F 93% 29.44 in 3.0 mi SSW 4.6 mph - N/A Rain Light Rain
5:42 PM 33.8 °F 28.6 °F 32.0 °F 93% 29.45 in 5.0 mi SSW 5.8 mph - 0.01 in Rain Light Rain
6:23 PM 33.8 °F 28.6 °F 32.0 °F 93% 29.47 in 10.0 mi SSW 5.8 mph - N/A   Overcast
7:02 PM 33.8 °F 29.6 °F 32.0 °F 93% 29.48 in 7.0 mi WSW 4.6 mph - N/A Rain Light Rain
7:42 PM 33.8 °F 30.8 °F 32.0 °F 93% 29.50 in 10.0 mi SW 3.5 mph - N/A   Overcast
8:22 PM 32.0 °F 27.5 °F 30.2 °F 93% 29.51 in 10.0 mi SW 4.6 mph - N/A   Overcast
9:02 PM 32.0 °F 27.5 °F 30.2 °F 93% 29.51 in 10.0 mi SW 4.6 mph - N/A   Overcast
9:42 PM 32.0 °F 26.4 °F 30.2 °F 93% 29.52 in 10.0 mi WSW 5.8 mph - N/A   Overcast
10:22 PM 33.8 °F 28.6 °F 30.2 °F 87% 29.52 in 10.0 mi West 5.8 mph - N/A   Overcast
11:02 PM 33.8 °F 27.7 °F 30.2 °F 87% 29.52 in 10.0 mi WSW 6.9 mph - N/A   Overcast
11:42 PM 33.8 °F 27.7 °F 30.2 °F 87% 29.52 in 10.0 mi WSW 6.9 mph - N/A   Overcast